This is the latest recevied weather packets stored in our database for station/object N4CRH-13. If no packets are shown the sender has not sent any weather packets the latest 10 day(s).
| Time | Temp. | Humidity | Pressure | Rain* | Wind** | Luminosity | Snow |
|---|---|---|---|---|---|---|---|
| 1777568609 | 1.11° C | 91% | 1298.5 hPa | 1.78 mm | - | 100 W/m² | - |
| 1777568307 | 1.11° C | 91% | 1298.4 hPa | 0 mm | - | 109 W/m² | - |
| 1777568002 | 1.11° C | 91% | 1298.4 hPa | 1.27 mm | - | 105 W/m² | - |
| 1777567700 | 1.11° C | 91% | 1298.4 hPa | 0 mm | - | 107 W/m² | - |
| 1777567397 | 1.11° C | 91% | 1298.2 hPa | 1.78 mm | - | 119 W/m² | - |
| 1777567095 | 1.11° C | 91% | 1298.2 hPa | 1.78 mm | - | 107 W/m² | - |
| 1777566792 | 1.11° C | 91% | 1298.2 hPa | 1.27 mm | - | 135 W/m² | - |
| 1777566490 | 1.11° C | 92% | 1298.4 hPa | 1.27 mm | - | 119 W/m² | - |
| 1777566187 | 1.11° C | 92% | 1298.4 hPa | 1.78 mm | - | 120 W/m² | - |
| 1777565883 | 1.11° C | 93% | 1298.2 hPa | 1.78 mm | - | 119 W/m² | - |
| 1777565579 | 1.11° C | 93% | 1298.4 hPa | 0 mm | - | 81 W/m² | - |
| 1777565276 | 1.11° C | 92% | 1298.4 hPa | 1.27 mm | - | 81 W/m² | - |
| 1777564972 | 1.11° C | 92% | 1298.2 hPa | 0 mm | - | 65 W/m² | - |
| 1777564667 | 1.11° C | 91% | 1298.1 hPa | 1.78 mm | - | 79 W/m² | - |
| 1777564362 | 1.11° C | 92% | 1298.2 hPa | 1.27 mm | - | 94 W/m² | - |
| 1777564059 | 1.11° C | 92% | 1298.2 hPa | 1.27 mm | - | 95 W/m² | - |
| 1777563755 | 1.11° C | 92% | 1298.2 hPa | 1.78 mm | - | 83 W/m² | - |
| 1777563452 | 1.11° C | 92% | 1298 hPa | 3.56 mm | - | 80 W/m² | - |
| 1777563145 | 1.11° C | 91% | 1298.1 hPa | 3.05 mm | - | 93 W/m² | - |
| 1777562842 | 1.11° C | 90% | 1298.1 hPa | 1.27 mm | - | 135 W/m² | - |
| 1777562539 | 1.11° C | 90% | 1298 hPa | 1.78 mm | - | 131 W/m² | - |
| 1777562237 | 1.11° C | 90% | 1298.4 hPa | 1.27 mm | - | 110 W/m² | - |
| 1777561935 | 1.11° C | 90% | 1298.1 hPa | 3.05 mm | - | 108 W/m² | - |
| 1777561631 | 1.11° C | 90% | 1298.2 hPa | 1.78 mm | - | 105 W/m² | - |
| 1777561328 | 0.56° C | 93% | 1298.5 hPa | 1.27 mm | - | 87 W/m² | - |
* Rain latest hour (hover to see other rain measurements)
** Current wind speed in m/s (hover to see current wind gust speed)